Regional Weather Roundup
Issued by NWS

Home | Current Version | Previous Version | Text Only | Print | Product List | Glossary Off
Versions: 1 2 3 4 5 6 7 8 9 10 11 12 13 14 15 16 17 18 19 20 21 22 23 24 25 26 27 28 29 30 31 32 33 34 35 36 37 38 39 40 41 42 43 44 45 46 47 48 49 50

914
ASUS43 KTOP 250508
RWRKS

WEATHER ROUNDUP FOR KANSAS
NATIONAL WEATHER SERVICE GOODLAND KS
1100 PM CST FRI FEB 24 2017

NOTE:  "FAIR" INDICATES FEW OR NO CLOUDS BELOW 12,000 FEET WITH NO
SIGNIFICANT WEATHER AND/OR OBSTRUCTIONS TO VISIBILITY.

KSZ001>006-013>018-027>032-041>047-250600-
NORTHWEST KANSAS

CITY           SKY/WX    TMP DP  RH WIND       PRES   REMARKS
GOODLAND       PTCLDY    14  11  87 W5        30.12R
HAYS           CLEAR     20  14  77 NW6       30.19R
HILL CITY      CLOUDY    20  14  77 NW6       30.18R
RUSSELL        CLEAR     19  13  77 N9        30.17R
$$

KSZ061>065-074>080-084>089-250600-
SOUTHWEST KANSAS

CITY           SKY/WX    TMP DP  RH WIND       PRES   REMARKS
DODGE CITY     CLEAR     15   8  73 NW7       30.16R
ELKHART          N/A     23   8  52 N5          N/A
GARDEN CITY    CLEAR     15   6  67 N10       30.15R WCI   2
GREAT BEND     CLEAR     14  10  84 W5        30.19R
LIBERAL        PTCLDY    25  12  58 N14       30.13S WCI  13
PRATT          CLEAR     15  10  82 N6        30.18R
$$

KSZ066>073-081>083-090>101-250600-
SOUTHEAST KANSAS

CITY           SKY/WX    TMP DP  RH WIND       PRES   REMARKS
CHANUTE        CLOUDY    29  18  63 NW17G29   30.14R WCI  17
COFFEYVILLE    CLOUDY    32  21  64 NW18      30.15R WCI  20
HUTCHINSON     CLEAR     23  15  71 N10       30.17R WCI  12
MEDICINE LODGE   N/A     21  14  74 N9        30.18S
NEWTON         CLEAR     23  17  78 N12       30.16R WCI  12
PARSONS        CLOUDY    31  20  63 NW16G25   30.15R WCI  20
WICHITA INTL   CLEAR     26  16  65 N12       30.17R WCI  16
WICHITA JABRA  CLEAR     24  17  74 N14       30.16R WCI  12
WICHITA MCCONL CLEAR     26  15  65 N13       30.16R WCI  14
WINFIELD       CLEAR     27  18  69 N14       30.18R WCI  16
$$

KSZ007>012-019>026-033>040-048>060-102>105-250600-
NORTHEAST KANSAS

CITY           SKY/WX    TMP DP  RH WIND       PRES   REMARKS
CONCORDIA      CLEAR     21  16  81 W12       30.14S WCI   9
EMPORIA        CLEAR     25  17  72 NW13      30.13R WCI  14
LAWRENCE       CLEAR     24  19  81 W13       30.09R WCI  12
MANHATTAN      CLEAR     25  17  72 VRB7      30.14R
MARYSVILLE     CLOUDY    25  19  80 NW14      30.10R WCI  13
OLATHE IND     CLEAR     23  17  78 W10       30.07S WCI  12
OLATHE EXE     CLEAR     24  18  77 NW10      30.06R WCI  14
SALINA         CLEAR     25  16  68 NW12      30.18R WCI  14
TOPEKA BILLARD CLEAR     26  19  74 W9        30.10S
TOPEKA FORBES  CLEAR     26  18  71 NW12      30.09S WCI  16
$$




USA.gov is the U.S. government's official web portal to all federal, state and local government web resources and services.